�������l�o���
Date,Time,MP-1(��Sv/h),MP-2(��Sv/h),MP-3(��Sv/h),MP-4(��Sv/h),MP-5(��Sv/h),MP-6(��Sv/h),MP-7(��Sv/h),MP-8(��Sv/h),����,����(m/s),���J
2016/07/01,00:00,1.260,2.014,2.160,2.156,1.712,0.628,1.172,1.019,�k��,1.2,��
2016/07/01,00:10,1.260,2.017,2.161,2.157,1.712,0.629,1.171,1.018,���k��,0.9,��
2016/07/01,00:20,1.259,2.015,2.160,2.155,1.714,0.629,1.170,1.017,���k��,0.6,��
2016/07/01,00:30,1.260,2.012,2.160,2.159,1.712,0.627,1.171,1.019,�k�k��,0.9,��
2016/07/01,00:40,1.260,2.016,2.160,2.155,1.714,0.626,1.171,1.018,���k��,0.9,��
2016/07/01,00:50,1.259,2.016,2.162,2.157,1.713,0.628,1.169,1.018,���k��,0.6,��
2016/07/01,01:00,1.260,2.016,2.161,2.155,1.711,0.625,1.170,1.018,��,1.2,��
2016/07/01,01:10,1.260,2.016,2.158,2.154,1.715,0.627,1.171,1.016,���k��,1.4,��
2016/07/01,01:20,1.263,2.018,2.163,2.158,1.716,0.626,1.169,1.018,���k��,1.2,��
2016/07/01,01:30,1.259,2.014,2.162,2.157,1.715,0.628,1.171,1.020,��,0.9,��
2016/07/01,01:40,1.259,2.016,2.161,2.155,1.715,0.628,1.172,1.019,���k��,0.6,��
2016/07/01,01:50,1.261,2.017,2.165,2.158,1.713,0.629,1.172,1.019,��,0.9,��
2016/07/01,02:00,1.261,2.017,2.163,2.157,1.715,0.629,1.172,1.020,���k��,1.2,��
2016/07/01,02:10,1.263,2.019,2.161,2.157,1.713,0.629,1.172,1.018,���k��,1.2,��
2016/07/01,02:20,1.260,2.016,2.161,2.157,1.715,0.628,1.172,1.021,�k��,0.9,��
2016/07/01,02:30,1.263,2.019,2.160,2.158,1.714,0.629,1.171,1.019,-,CALM,��
2016/07/01,02:40,1.261,2.017,2.164,2.156,1.710,0.628,1.170,1.018,��,1.4,��
2016/07/01,02:50,1.262,2.021,2.159,2.159,1.714,0.627,1.170,1.020,�k��,0.9,��
2016/07/01,03:00,1.261,2.018,2.160,2.161,1.716,0.628,1.170,1.020,�k,1.2,��
2016/07/01,03:10,1.262,2.016,2.161,2.160,1.716,0.628,1.171,1.019,�k��,1.2,��
2016/07/01,03:20,1.263,2.019,2.163,2.158,1.711,0.628,1.172,1.020,�k,0.6,��
2016/07/01,03:30,1.264,2.018,2.160,2.160,1.715,0.627,1.169,1.018,-,CALM,��
2016/07/01,03:40,1.263,2.019,2.161,2.157,1.715,0.628,1.169,1.019,���쐼,0.6,��
2016/07/01,03:50,1.262,2.018,2.159,2.159,1.715,0.630,1.171,1.021,�k��,1.1,��
2016/07/01,04:00,1.261,2.018,2.162,2.162,1.716,0.629,1.171,1.019,���k��,1.7,��
2016/07/01,04:10,1.265,2.018,2.160,2.156,1.714,0.628,1.171,1.020,�k��,1.1,��
2016/07/01,04:20,1.261,2.019,2.160,2.160,1.718,0.628,1.172,1.020,�k��,1.7,��
2016/07/01,04:30,1.262,2.019,2.162,2.158,1.715,0.630,1.169,1.019,�k��,1.7,��
2016/07/01,04:40,1.264,2.017,2.162,2.160,1.714,0.628,1.172,1.021,���k��,1.4,��
2016/07/01,04:50,1.262,2.019,2.162,2.162,1.717,0.628,1.169,1.020,�k��,1.2,��
2016/07/01,05:00,1.262,2.018,2.164,2.158,1.715,0.628,1.170,1.018,�k��,1.7,��
2016/07/01,05:10,1.262,2.016,2.164,2.162,1.718,0.627,1.172,1.020,�k��,2.0,��
2016/07/01,05:20,1.262,2.017,2.163,2.160,1.717,0.626,1.171,1.019,�k��,1.9,��
2016/07/01,05:30,1.260,2.019,2.166,2.160,1.718,0.627,1.173,1.017,�k�k��,1.2,��
2016/07/01,05:40,1.262,2.019,2.163,2.160,1.717,0.627,1.171,1.018,�k�k��,1.7,��
2016/07/01,05:50,1.260,2.021,2.163,2.157,1.715,0.627,1.170,1.019,�k,2.0,��
2016/07/01,06:00,1.261,2.021,2.163,2.160,1.718,0.626,1.171,1.018,�k,1.2,��
2016/07/01,06:10,1.265,2.022,2.165,2.161,1.713,0.624,1.171,1.020,�k��,0.9,��
2016/07/01,06:20,1.263,2.019,2.167,2.161,1.716,0.628,1.173,1.019,�k�k��,1.2,��
2016/07/01,06:30,1.264,2.018,2.161,2.161,1.719,0.627,1.171,1.018,�k�k��,0.6,��
2016/07/01,06:40,1.264,2.021,2.162,2.161,1.716,0.628,1.168,1.018,���k��,0.8,��
2016/07/01,06:50,1.262,2.017,2.168,2.158,1.716,0.626,1.171,1.017,�k�k��,0.9,��
2016/07/01,07:00,1.264,2.019,2.165,2.159,1.716,0.625,1.170,1.018,�k,0.6,��
2016/07/01,07:10,1.263,2.021,2.165,2.159,1.721,0.625,1.168,1.018,�k�k��,0.8,��
2016/07/01,07:20,1.261,2.021,2.167,2.160,1.718,0.625,1.170,1.020,�k��,1.5,��
2016/07/01,07:30,1.260,2.021,2.165,2.162,1.719,0.624,1.169,1.019,�k��,1.7,��
2016/07/01,07:40,1.263,2.018,2.162,2.158,1.718,0.623,1.169,1.018,�k��,1.4,��
2016/07/01,07:50,1.262,2.018,2.166,2.160,1.714,0.623,1.172,1.018,���k��,0.9,��
2016/07/01,08:00,1.262,2.017,2.164,2.160,1.716,0.626,1.172,1.018,�k�k��,1.2,��
2016/07/01,08:10,1.261,2.024,2.163,2.161,1.717,0.624,1.171,1.019,-,CALM,��
2016/07/01,08:20,1.259,2.019,2.165,2.161,1.718,0.626,1.171,1.018,-,CALM,��
2016/07/01,08:30,1.262,2.020,2.129,2.164,1.718,0.625,1.171,1.017,��,0.6,��
2016/07/01,08:40,1.261,2.016,2.139,2.162,1.717,0.624,1.171,1.017,�쓌,1.4,��
2016/07/01,08:50,1.260,2.018,2.154,2.162,1.711,0.626,1.172,1.017,�쓌,1.4,��
2016/07/01,09:00,1.261,2.018,2.152,2.166,1.717,0.626,1.173,1.018,��쓌,2.0,��
2016/07/01,09:10,1.262,2.022,2.153,2.164,1.698,0.626,1.174,1.017,�쓌,1.4,��
2016/07/01,09:20,1.259,2.021,2.150,2.163,1.697,0.624,1.172,1.017,���쓌,1.9,��
2016/07/01,09:30,1.260,2.019,2.154,2.163,1.708,0.626,1.171,1.017,�쓌,2.6,��
2016/07/01,09:40,1.263,2.023,2.153,2.164,1.688,0.626,1.172,1.019,�쓌,2.0,��
2016/07/01,09:50,1.260,2.024,2.154,2.163,1.684,0.627,1.172,1.018,�쓌,3.0,��
2016/07/01,10:00,1.262,2.023,2.147,2.161,1.687,0.627,1.175,1.017,���쓌,2.2,��
2016/07/01,10:10,1.262,2.022,2.125,2.162,1.684,0.628,1.174,1.018,���쓌,2.2,��
2016/07/01,10:20,1.261,2.023,2.129,2.163,1.687,0.626,1.175,1.019,�쓌,2.6,��
2016/07/01,10:30,1.263,2.022,2.131,2.163,1.687,0.627,1.173,1.017,���쓌,2.3,��
2016/07/01,10:40,1.264,2.023,2.129,2.165,1.690,0.626,1.176,1.018,���쓌,2.5,��
2016/07/01,10:50,1.264,2.024,2.131,2.164,1.687,0.628,1.175,1.019,�쓌,2.3,��
2016/07/01,11:00,1.263,2.026,2.132,2.163,1.686,0.630,1.175,1.020,���쓌,2.3,��
2016/07/01,11:10,1.263,2.029,2.133,2.163,1.693,0.626,1.176,1.017,�쓌,3.1,��
2016/07/01,11:20,1.263,2.028,2.133,2.166,1.694,0.627,1.180,1.018,�쓌,3.1,��
2016/07/01,11:30,1.263,2.030,2.117,2.170,1.698,0.630,1.176,1.021,���쓌,2.8,��
2016/07/01,11:40,1.264,2.030,2.117,2.168,1.699,0.630,1.176,1.017,�쓌,3.5,��
2016/07/01,11:50,1.266,2.031,2.120,2.170,1.699,0.630,1.175,1.021,�쓌,2.9,��
2016/07/01,12:00,1.267,2.035,2.123,2.168,1.702,0.628,1.176,1.021,�쓌,3.4,��
2016/07/01,12:10,1.265,2.033,2.122,2.168,1.701,0.629,1.176,1.020,��쓌,3.7,��
2016/07/01,12:20,1.264,2.031,2.126,2.171,1.700,0.629,1.176,1.018,�쓌,4.0,��
2016/07/01,12:30,1.267,2.031,2.125,2.170,1.718,0.629,1.177,1.019,�쓌,3.4,��
2016/07/01,12:40,1.265,2.036,2.126,2.169,1.697,0.628,1.178,1.019,��쓌,3.1,��
2016/07/01,12:50,1.266,2.033,2.125,2.175,1.711,0.630,1.179,1.020,��쓌,4.3,��
2016/07/01,13:00,1.267,2.035,2.122,2.171,1.719,0.631,1.178,1.019,��쓌,3.4,��
2016/07/01,13:10,1.267,2.041,2.127,2.171,1.721,0.630,1.179,1.021,��쓌,4.0,��
2016/07/01,13:20,1.268,2.038,2.131,2.173,1.718,0.631,1.177,1.020,�쓌,3.4,��
2016/07/01,13:30,1.266,2.034,2.129,2.173,1.718,0.631,1.177,1.020,��쓌,3.4,��
2016/07/01,13:40,1.268,2.036,2.131,2.175,1.697,0.630,1.179,1.022,��쓌,3.5,��
2016/07/01,13:50,1.267,2.039,2.133,2.174,1.724,0.633,1.177,1.018,��쓌,3.7,��
2016/07/01,14:00,1.266,2.038,2.132,2.174,1.722,0.631,1.179,1.021,��쓌,4.2,��
2016/07/01,14:10,1.269,2.038,2.132,2.176,1.718,0.629,1.180,1.021,��쓌,4.3,��
2016/07/01,14:20,1.266,2.044,2.132,2.175,1.723,0.633,1.178,1.021,��쓌,4.2,��
2016/07/01,14:30,1.269,2.039,2.137,2.176,1.725,0.632,1.180,1.021,��쓌,5.1,��
2016/07/01,14:40,1.270,2.040,2.133,2.177,1.721,0.631,1.178,1.020,��쓌,5.1,��
2016/07/01,14:50,1.269,2.043,2.136,2.178,1.729,0.631,1.179,1.021,��쓌,4.4,��
2016/07/01,15:00,1.268,2.043,2.137,2.182,1.727,0.634,1.178,1.021,��쓌,4.6,��
2016/07/01,15:10,1.268,2.045,2.135,2.180,1.727,0.633,1.179,1.022,��쓌,5.3,��
2016/07/01,15:20,1.269,2.043,2.141,2.180,1.726,0.633,1.179,1.021,��쓌,4.7,��
2016/07/01,15:30,1.268,2.045,2.137,2.177,1.726,0.631,1.179,1.021,��쓌,3.6,��
2016/07/01,15:40,1.269,2.047,2.140,2.180,1.729,0.633,1.178,1.022,��쓌,4.6,��
2016/07/01,15:50,1.268,2.044,2.138,2.177,1.729,0.633,1.180,1.021,�쓌,4.3,��
2016/07/01,16:00,1.271,2.044,2.139,2.184,1.725,0.631,1.179,1.021,��쓌,2.8,��
2016/07/01,16:10,1.269,2.044,2.138,2.182,1.725,0.634,1.180,1.020,�쓌,3.4,��
2016/07/01,16:20,1.270,2.049,2.136,2.182,1.724,0.632,1.181,1.022,�쓌,3.1,��
2016/07/01,16:30,1.270,2.045,2.143,2.181,1.725,0.632,1.178,1.022,��쓌,4.2,��
2016/07/01,16:40,1.269,2.045,2.138,2.183,1.727,0.630,1.178,1.022,��쓌,4.2,��
2016/07/01,16:50,1.269,2.043,2.136,2.182,1.728,0.631,1.178,1.021,��,5.4,��
2016/07/01,17:00,1.269,2.046,2.136,2.183,1.719,0.631,1.180,1.020,��쓌,5.0,��
2016/07/01,17:10,1.270,2.045,2.139,2.182,1.729,0.631,1.179,1.023,��쓌,5.0,��
2016/07/01,17:20,1.270,2.044,2.140,2.183,1.728,0.631,1.179,1.022,��쓌,6.0,��
2016/07/01,17:30,1.270,2.046,2.141,2.183,1.727,0.632,1.178,1.021,��,4.1,��
2016/07/01,17:40,1.270,2.046,2.137,2.179,1.728,0.631,1.179,1.020,��쓌,4.4,��
2016/07/01,17:50,1.268,2.047,2.139,2.184,1.725,0.631,1.178,1.020,��,4.8,��
2016/07/01,18:00,1.269,2.050,2.143,2.180,1.732,0.632,1.179,1.021,��,4.3,��
2016/07/01,18:10,1.270,2.048,2.144,2.182,1.726,0.631,1.179,1.023,��,5.1,��
2016/07/01,18:20,1.268,2.048,2.143,2.176,1.727,0.632,1.178,1.021,��,5.6,��
2016/07/01,18:30,1.269,2.048,2.142,2.180,1.729,0.631,1.179,1.023,��,4.3,��
2016/07/01,18:40,1.269,2.047,2.144,2.182,1.725,0.631,1.181,1.025,��,4.6,��
2016/07/01,18:50,1.272,2.050,2.144,2.183,1.728,0.630,1.181,1.024,��,4.5,��
2016/07/01,19:00,1.272,2.046,2.138,2.182,1.729,0.630,1.179,1.026,��쓌,4.9,��
2016/07/01,19:10,1.273,2.048,2.143,2.185,1.729,0.633,1.178,1.027,��쓌,5.7,��
2016/07/01,19:20,1.271,2.051,2.141,2.186,1.728,0.632,1.181,1.025,��쓌,6.0,��
2016/07/01,19:30,1.272,2.048,2.142,2.186,1.729,0.634,1.180,1.028,��쓌,6.5,��
2016/07/01,19:40,1.272,2.047,2.140,2.186,1.729,0.632,1.180,1.025,��,6.6,��
2016/07/01,19:50,1.269,2.049,2.143,2.183,1.728,0.635,1.180,1.027,��,5.4,��
2016/07/01,20:00,1.275,2.048,2.141,2.183,1.727,0.635,1.182,1.024,��,5.2,��
2016/07/01,20:10,1.272,2.050,2.140,2.186,1.728,0.635,1.182,1.026,��,5.2,��
2016/07/01,20:20,1.270,2.049,2.144,2.185,1.728,0.634,1.181,1.025,��,5.4,��
2016/07/01,20:30,1.272,2.050,2.141,2.185,1.729,0.633,1.180,1.024,��,4.5,��
2016/07/01,20:40,1.273,2.048,2.139,2.185,1.727,0.633,1.180,1.024,��,4.6,��
2016/07/01,20:50,1.271,2.048,2.143,2.182,1.730,0.633,1.184,1.025,��,5.6,��
2016/07/01,21:00,1.272,2.048,2.141,2.187,1.731,0.632,1.180,1.024,��,4.7,��
2016/07/01,21:10,1.275,2.048,2.143,2.187,1.730,0.634,1.180,1.025,��,4.8,��
2016/07/01,21:20,1.274,2.046,2.142,2.184,1.727,0.634,1.179,1.025,��,5.5,��
2016/07/01,21:30,1.272,2.047,2.139,2.185,1.730,0.635,1.181,1.024,��,5.5,��
2016/07/01,21:40,1.270,2.047,2.140,2.183,1.730,0.633,1.183,1.026,��,6.3,��
2016/07/01,21:50,1.272,2.049,2.139,2.188,1.731,0.635,1.181,1.026,��,6.5,��
2016/07/01,22:00,1.272,2.048,2.140,2.186,1.728,0.635,1.182,1.026,��,7.3,��
2016/07/01,22:10,1.273,2.047,2.142,2.182,1.728,0.635,1.182,1.024,��,7.7,��
2016/07/01,22:20,1.274,2.048,2.140,2.184,1.730,0.635,1.182,1.025,��,7.9,��
2016/07/01,22:30,1.275,2.049,2.140,2.184,1.732,0.634,1.183,1.026,��쐼,7.9,��
2016/07/01,22:40,1.274,2.047,2.142,2.186,1.730,0.634,1.182,1.027,��,8.3,��
2016/07/01,22:50,1.274,2.046,2.137,2.186,1.731,0.635,1.184,1.026,��,7.9,��
2016/07/01,23:00,1.275,2.050,2.141,2.186,1.729,0.635,1.181,1.026,��,7.6,��
2016/07/01,23:10,1.274,2.050,2.141,2.189,1.731,0.634,1.182,1.026,��,7.0,��
2016/07/01,23:20,1.274,2.050,2.142,2.185,1.731,0.635,1.183,1.026,��,7.1,��
2016/07/01,23:30,1.274,2.050,2.142,2.186,1.732,0.633,1.180,1.026,��,5.2,��
2016/07/01,23:40,1.274,2.051,2.146,2.188,1.729,0.635,1.183,1.024,��쐼,6.2,��
2016/07/01,23:50,1.272,2.046,2.140,2.186,1.732,0.634,1.182,1.026,��쐼,6.0,��
